Regional Weather Roundup
Issued by NWS Upton, NY

Current Version | Previous Version | Text Only | Print | Product List | Glossary On
Versions: 1 2 3 4 5 6 7 8 9 10 11 12 13 14 15 16 17 18 19 20 21 22 23 24 25 26 27 28 29 30 31 32 33 34 35 36 37
000
ASUS41 KOKX 221405
RWROKX

REGIONAL WEATHER ROUNDUP
NATIONAL WEATHER SERVICE NEW YORK NY
1000 AM EDT WED OCT 22 2014

NOTE: "FAIR" INDICATES FEW OR NO CLOUDS BELOW 12,000 FEET WITH NO
SIGNIFICANT WEATHER AND/OR OBSTRUCTIONS TO VISIBILITY.

NYZ071-072-176-178-NJZ106-104-221500-
NEW YORK CITY METRO AREA


CITY           SKY/WX    TMP DP  RH WIND       PRES   REMARKS
CENTRAL PARK   CLOUDY    55  51  86 VRB7      29.96S
LAGUARDIA APRT LGT RAIN  55  51  86 NE15G23   29.93S
KENNEDY INTL   LGT RAIN  55  51  86 N17       29.93S
NEWARK/LIBERTY LGT RAIN  54  52  93 N17       29.93S
BRNX BOT. GARD   N/A     54  50  87 N7        29.96R
TETERBORO      LGT RAIN  55  50  83 N10       29.93S
$$

NYZ177-179-078>081-221500-
LONG ISLAND NEW YORK

CITY           SKY/WX    TMP DP  RH WIND       PRES   REMARKS
FARMINGDALE    LGT RAIN  55  52  89 NE16G23   29.92S
ISLIP          LGT RAIN  55  52  89 N15G22    29.90S
SHIRLEY        LGT RAIN  56  52  86 N8G17     29.92S
WESTHAMPTON    CLOUDY    57  51  80 NE15G26   29.92S
MONTAUK POINT    N/A     58  54  86 NE13G24   29.92F
$$

NYZ052-065-067-221500-
HUDSON VALLEY

CITY           SKY/WX    TMP DP  RH WIND       PRES   REMARKS
WHITE PLAINS   LGT RAIN  53  49  86 N12       29.94S
NEWBURGH       NOT AVBL
MONTGOMERY     CLOUDY    52  47  83 NE17      29.99S
POUGHKEEPSIE   CLOUDY    52  47  83 N10       30.01R
ALBANY         CLOUDY    50  44  80 N10       30.10R
$$

NJZ001-105-106-008-010-013-015-019>022-104-221500-
NEW JERSEY

CITY           SKY/WX    TMP DP  RH WIND       PRES   REMARKS
NEWARK/LIBERTY LGT RAIN  54  52  93 N17       29.93S
TETERBORO      LGT RAIN  55  50  83 N10       29.93S
CALDWELL       CLOUDY    52  49  89 NE5       29.95S
MORRISTOWN     CLOUDY    55  52  88 NE14G21   29.94S
SOMERVILLE     CLOUDY    55  50  83 N8G18     29.91S
SUSSEX         CLOUDY    54  49  83 NE8       29.98S
ANDOVER          N/A     51  49  92 NE10G18   29.97R
TRENTON        RAIN      54  51  90 NE14G21   29.90S FOG
MILLVILLE      PTSUNNY   57  51  80 N18G26    29.84S
ATLANTIC CITY  CLOUDY    56  53  90 N17G25    29.83R
WRIGHTSTOWN    RAIN      55  54  99 N20G29    29.85F
TOMS RIVER     CLOUDY    55  52  88 NE13G23   29.86R
BELMAR         CLOUDY    54  48  82 NE15      29.89R
$$

PAZ047>061-062-071-221500-
EASTERN PENNSYLVANIA

CITY           SKY/WX    TMP DP  RH WIND       PRES   REMARKS
PHILADELPHIA   CLOUDY    58  52  80 NE15G29   29.88R
ALLENTOWN      LGT RAIN  54  50  86 NE15G21   29.95S
SCRANTON       CLOUDY    53  47  79 N10       30.01R
$$

CTZ002-004>006-009-010-012-RIZ004-006-007-MAZ004-011-015-221500-
SOUTHERN NEW ENGLAND
 IN CT

CITY           SKY/WX    TMP DP  RH WIND       PRES   REMARKS
BRADLEY INTL   CLOUDY    54  48  80 N13       30.00R
HARTFORD       LGT RAIN  53  49  86 N12G20    29.99S
DANBURY        CLOUDY    53  46  77 NE6       29.99R
WTRBRY/OXFORD  NOT AVBL
BRIDGEPORT     LGT RAIN  55  50  83 NE18G25   29.94F
MERIDEN        CLOUDY    54  48  80 N10       29.97F
NEW HAVEN      CLOUDY    56  49  77 N21       29.94F
CHESTER        CLOUDY    54  52  94 N12       29.95F
GROTON         CLOUDY    55  52  89 N13       29.92F
WILLIMANTIC    CLOUDY    56  50  80 NE13      29.97F

 IN RI

CITY           SKY/WX    TMP DP  RH WIND       PRES   REMARKS
PROVIDENCE     CLOUDY    57  54  89 NE23G31   29.95F
BLOCK ISLAND   CLOUDY    57  54  88 NE16G25   29.90S
WESTERLY       CLOUDY    57  53  86 N13G20    29.92F

 IN MA

CITY           SKY/WX    TMP DP  RH WIND       PRES   REMARKS
BOSTON         DRIZZLE   54  52  93 NE22G33   30.01F FOG
WORCESTER      LGT RAIN  48  48 100 NE16G25   30.01S FOG
WESTFIELD      CLOUDY    53  47  79 N13G21    30.03R
PROVINCETOWN   CLOUDY    57  54  88 NE18G28   29.95F
NANTUCKET      CLOUDY    59  57  93 NE21      29.88F FOG
$$

ANZ330-335-338-340-345-350-353-355-221500-
COASTAL MARINE OBSERVATIONS


STATION/POSITION TIME  SKY/WX   TEMP    WIND        PRES    VSBY  WAVE
                                AIR SEA DIR/SP/G                  HT/PER
                 (UTC)          (F)     (DEG/KT/KT) (MB)    (MI)  (FT/S)
NY HARB ENTRANCE NOT AVBL
4S FIRE IS       1400               63                N/A           6/ 5
20S FIRE ISLAND  1400            58 64   30/ 27/ 31 1010.3          9/ 7
23SW MTP         1400                                 N/A           7/ 6
HUDSON CANYON    1400            59 66  340/ 12/ 19 1007.7
EXECUTION ROCKS  1400            56 63   20/ 19/ 23   N/A
WESTERN LI SOUND 1400            56      40/ 17/ 21   N/A           3/ 4
CENTRAL LI SOUND 1300            56 64   40/ 19/ 25   N/A           2/ 3
EASTERN LI SOUND 1300            58 63   30/ 17/ 23   N/A
ROBBINS REEF     1400            56      20/ 21/ 25 1011.8
$$


>>>>>>>>>>>>>>>>>>>>>>>>>>>> KEY <<<<<<<<<<<<<<<<<<<<<<<<<<<
>                                                          <
>     SKY/WX - SKY CONDITION/PRESENT WEATHER               <
>     TMP    - TEMPERATURE IN FAHRENHEIT                   <
>     DP     - DEWPOINT IN FAHRENHEIT                      <
>     RH     - RELATIVE HUMIDITY IN PERCENT                <
>     WIND   - DIRECTION AND SPEED IN MPH                  <
>     PRES   - MEAN SEA LEVEL PRESSURE IN INCHES OF HG     <
>     WCI    - WIND CHILL INDEX                            <
>     VSB    - VISIBILITY IN MILES                         <
>     HX     - HEAT INDEX                                  <
>     TC     - TEMPERATURE IN CELSIUS                      <
>     VRB    - VARIABLE WIND DIRECTION                     <
>                                                          <
>>>>>>>>>>>>>>>>>>>>>>>>>>>> KEY <<<<<<<<<<<<<<<<<<<<<<<<<<<





USA.gov is the U.S. government's official web portal to all federal, state and local government web resources and services.